Marion-Critt Cnty AP, Marion,, KY

10:17 AM CST on November 21, 2017 (GMT -0600)
Marion-Critt Cnty AP, Marion,

Weather History for K5M9 - January, 2014

Change the Weather History Date:

Tuesday, January 7, 2014

  Actual Average (KEHR) Record (KEHR)
Temperature  
Mean Temperature 8 °F -  
Max Temperature 19 °F 41 °F 68 °F (2008)
Min Temperature -2 °F 24 °F -3 °F (1968)
Degree Days  
Heating Degree Days 56    
Moisture  
Dew Point 0 °F    
Average Humidity 63    
Maximum Humidity 80    
Minimum Humidity 51    
Precipitation  
Precipitation 0.00 in - - ()
Sea Level Pressure  
Sea Level Pressure 30.43 in    
Wind  
Wind Speed 6 mph (SSW)    
Max Wind Speed 14 mph    
Max Gust Speed 22 mph    
Visibility 10 miles    
Events      
Averages and records for this station are not official NWS values.
T = Trace of Precipitation, MM = Missing Value Source: NWS Daily Summary

Daily Weather History Graph

Daily Weather History Graph

Search for Another Location

Airport or City:

Trip Planner

Search our weather history database for the weather conditions in past years. The results will help you decide how hot, cold, wet, or windy it might be!

Date:

Astronomy

Jan. 07, 2014 Rise Set
Actual Time 7:07 AM CST 4:50 PM CST
Civil Twilight 6:38 AM CST 5:19 PM CST
Nautical Twilight 6:05 AM CST 5:52 PM CST
Astronomical Twilight 5:34 AM CST 6:23 PM CST
Moon 11:05 AM CST (1/7) No Moon Set
Length of Visible Light 10h 41m
Length of Day
9h 43m
Waxing Crescent, 46% of the Moon is Illuminated
Jan 7
Waxing Crescent
Jan 7
First Quarter
Jan 15
Full
Jan 23
Last Quarter
Jan 30
New

Hourly Weather History & Observations

Time (CST) Temp. Windchill Dew Point Humidity Pressure Visibility Wind Dir Wind Speed Gust Speed Precip Events Conditions
12:15 AM -0.9 °F -12.7 °F -10.1 °F 65% 30.52 in 10.0 mi West 5.8 mph - N/A   Clear
12:35 AM -1.3 °F -9.3 °F -10.3 °F 66% 30.51 in 10.0 mi WSW 3.5 mph - N/A   Clear
12:55 AM -1.3 °F -13.1 °F -10.3 °F 66% 30.51 in 10.0 mi WSW 5.8 mph - N/A   Clear
1:15 AM -1.3 °F -11.4 °F -10.3 °F 66% 30.51 in 10.0 mi WSW 4.6 mph - N/A   Clear
1:35 AM -0.9 °F -14.1 °F -10.3 °F 65% 30.51 in 10.0 mi West 6.9 mph - N/A   Clear
1:55 AM -0.9 °F -11.0 °F -9.9 °F 66% 30.52 in 10.0 mi West 4.6 mph - N/A   Clear
2:15 AM -1.5 °F -9.5 °F -9.6 °F 69% 30.51 in 10.0 mi SW 3.5 mph - N/A   Clear
2:35 AM -1.8 °F -12.0 °F -8.5 °F 73% 30.52 in 10.0 mi WSW 4.6 mph - N/A   Clear
2:55 AM -1.3 °F - -8.5 °F 72% 30.50 in 10.0 mi Calm Calm - N/A   Clear
3:15 AM -2.2 °F - -7.8 °F 77% 30.50 in 10.0 mi Calm Calm - N/A   Clear
3:35 AM -2.2 °F -10.4 °F -7.6 °F 78% 30.50 in 10.0 mi SW 3.5 mph - N/A   Clear
3:55 AM -2.2 °F -12.5 °F -6.9 °F 80% 30.51 in 10.0 mi SW 4.6 mph - N/A   Clear
4:15 AM -1.5 °F -13.3 °F -7.6 °F 75% 30.51 in 10.0 mi SW 5.8 mph - N/A   Clear
4:35 AM -1.3 °F -9.3 °F -6.9 °F 77% 30.51 in 10.0 mi SW 3.5 mph - N/A   Clear
4:55 AM -0.8 °F -10.8 °F -7.1 °F 75% 30.51 in 10.0 mi WSW 4.6 mph - N/A   Clear
5:15 AM -0.4 °F -10.4 °F -8.1 °F 70% 30.51 in 10.0 mi WSW 4.6 mph - N/A   Clear
5:35 AM -0.4 °F -10.4 °F -8.1 °F 70% 30.51 in 10.0 mi WSW 4.6 mph - N/A   Clear
5:55 AM -0.2 °F -8.1 °F -6.7 °F 74% 30.51 in 10.0 mi SW 3.5 mph - N/A   Clear
6:15 AM -0.6 °F -8.5 °F -6.7 °F 75% 30.51 in 10.0 mi SSW 3.5 mph - N/A   Clear
6:35 AM -0.6 °F -10.6 °F -6.2 °F 77% 30.49 in 10.0 mi South 4.6 mph - N/A   Clear
6:55 AM -0.4 °F -10.4 °F -6.0 °F 77% 30.50 in 10.0 mi SSW 4.6 mph - N/A   Clear
7:15 AM -0.4 °F -8.3 °F -5.8 °F 78% 30.50 in 10.0 mi South 3.5 mph - N/A   Clear
7:35 AM 0.5 °F -7.3 °F -5.6 °F 75% 30.52 in 10.0 mi South 3.5 mph - N/A   Clear
7:55 AM 1.6 °F -11.0 °F -4.7 °F 75% 30.52 in 10.0 mi SSW 6.9 mph - N/A   Clear
8:15 AM 2.5 °F -8.6 °F -4.2 °F 74% 30.52 in 10.0 mi SSW 5.8 mph - N/A   Clear
8:35 AM 4.1 °F -3.2 °F -3.8 °F 70% 30.52 in 10.0 mi SSW 3.5 mph - N/A   Clear
8:55 AM 5.9 °F -4.5 °F -3.1 °F 67% 30.53 in 10.0 mi SSW 5.8 mph - N/A   Clear
9:15 AM 7.2 °F -3.0 °F -2.9 °F 63% 30.52 in 10.0 mi SSW 5.8 mph - N/A   Clear
9:35 AM 8.4 °F -3.9 °F -2.9 °F 60% 30.53 in 10.0 mi South 8.1 mph - N/A   Clear
9:55 AM 9.5 °F 1.2 °F -2.7 °F 58% 30.53 in 10.0 mi South 4.6 mph - N/A   Clear
10:15 AM 10.4 °F 0.8 °F -2.9 °F 55% 30.52 in 10.0 mi SW 5.8 mph - N/A   Clear
10:35 AM 11.1 °F 1.7 °F -2.9 °F 53% 30.51 in 10.0 mi SSW 5.8 mph - N/A   Clear
10:55 AM 12.4 °F 2.0 °F -0.9 °F 55% 30.50 in 10.0 mi SSW 6.9 mph - N/A   Clear
11:15 AM 12.6 °F -1.4 °F -2.2 °F 52% 30.49 in 10.0 mi SW 11.5 mph - N/A   Clear
11:35 AM 13.8 °F 3.7 °F -1.1 °F 52% 30.47 in 10.0 mi SSW 6.9 mph 16.1 mph N/A   Clear
11:55 AM 14.9 °F 3.1 °F -0.2 °F 51% 30.45 in 10.0 mi WSW 9.2 mph - N/A   Clear
12:15 PM 15.8 °F 4.2 °F 1.6 °F 54% 30.44 in 10.0 mi South 9.2 mph - N/A   Mostly Cloudy
12:35 PM 16.7 °F 2.6 °F 2.5 °F 54% 30.42 in 10.0 mi SSW 13.8 mph 19.6 mph N/A   Mostly Cloudy
12:55 PM 16.9 °F 7.4 °F 1.9 °F 52% 30.41 in 10.0 mi SSW 6.9 mph - N/A   Scattered Clouds
1:15 PM 17.2 °F 8.9 °F 3.4 °F 55% 30.41 in 10.0 mi SSW 5.8 mph 17.3 mph N/A   Scattered Clouds
1:35 PM 18.3 °F 7.3 °F 4.8 °F 56% 30.40 in 10.0 mi South 9.2 mph - N/A   Clear
1:55 PM 18.3 °F 6.6 °F 3.7 °F 53% 30.39 in 10.0 mi South 10.4 mph 19.6 mph N/A   Clear
2:15 PM 19.0 °F 6.8 °F 4.5 °F 53% 30.38 in 10.0 mi South 11.5 mph 16.1 mph N/A   Clear
2:35 PM 18.9 °F 9.8 °F 4.1 °F 53% 30.37 in 10.0 mi South 6.9 mph 16.1 mph N/A   Clear
2:55 PM 19.2 °F 8.4 °F 5.2 °F 54% 30.37 in 10.0 mi South 9.2 mph 21.9 mph N/A   Clear
3:15 PM 19.2 °F 5.8 °F 5.4 °F 55% 30.36 in 10.0 mi South 13.8 mph 21.9 mph N/A   Clear
3:35 PM 19.0 °F 6.8 °F 5.5 °F 56% 30.35 in 10.0 mi South 11.5 mph 21.9 mph N/A   Clear
3:55 PM 19.0 °F 6.1 °F 5.9 °F 57% 30.36 in 10.0 mi SSW 12.7 mph 19.6 mph N/A   Clear
4:15 PM 18.5 °F 9.3 °F 5.7 °F 58% 30.34 in 10.0 mi South 6.9 mph - N/A   Clear
4:35 PM 18.5 °F 9.3 °F 5.7 °F 58% 30.35 in 10.0 mi South 6.9 mph 18.4 mph N/A   Clear
4:55 PM 18.5 °F 8.4 °F 5.7 °F 58% 30.35 in 10.0 mi South 8.1 mph - N/A   Clear
5:15 PM 18.5 °F 8.4 °F 5.9 °F 58% 30.35 in 10.0 mi South 8.1 mph - N/A   Clear
5:35 PM 18.5 °F 7.5 °F 6.1 °F 58% 30.35 in 10.0 mi SSW 9.2 mph - N/A   Clear
5:55 PM 18.3 °F 9.1 °F 5.9 °F 58% 30.35 in 10.0 mi SSW 6.9 mph - N/A   Clear
6:15 PM 18.1 °F 7.9 °F 6.4 °F 60% 30.34 in 10.0 mi South 8.1 mph - N/A   Clear
6:35 PM 18.1 °F 8.9 °F 6.3 °F 60% 30.33 in 10.0 mi South 6.9 mph - N/A   Clear
6:55 PM 18.1 °F 7.9 °F 6.6 °F 61% 30.32 in 10.0 mi South 8.1 mph 16.1 mph N/A   Clear
7:15 PM 18.3 °F 8.2 °F 6.6 °F 60% 30.32 in 10.0 mi SSW 8.1 mph 17.3 mph N/A   Clear
7:35 PM 18.3 °F 9.1 °F 6.4 °F 60% 30.32 in 10.0 mi SSW 6.9 mph - N/A   Clear
7:55 PM 18.1 °F 10.0 °F 6.6 °F 61% 30.34 in 10.0 mi SSW 5.8 mph - N/A   Clear
8:15 PM 18.5 °F 8.4 °F 6.6 °F 60% 30.34 in 10.0 mi SSW 8.1 mph 17.3 mph N/A   Clear
8:35 PM 19.0 °F 9.0 °F 6.4 °F 58% 30.34 in 10.0 mi SSW 8.1 mph 16.1 mph N/A   Clear
8:55 PM 19.0 °F 7.5 °F 6.1 °F 57% 30.35 in 10.0 mi SSW 10.4 mph - N/A   Clear
9:15 PM 18.9 °F 10.8 °F 6.1 °F 58% 30.36 in 10.0 mi SSW 5.8 mph 16.1 mph N/A   Clear
9:35 PM 18.5 °F 8.4 °F 6.6 °F 60% 30.35 in 10.0 mi SSW 8.1 mph - N/A   Clear
9:55 PM 18.1 °F 7.9 °F 6.6 °F 61% 30.35 in 10.0 mi SSW 8.1 mph - N/A   Clear
10:15 PM 18.0 °F 7.7 °F 6.8 °F 62% 30.35 in 10.0 mi SSW 8.1 mph - N/A   Clear
10:35 PM 18.1 °F 7.9 °F 6.6 °F 61% 30.35 in 10.0 mi SSW 8.1 mph - N/A   Clear
10:55 PM 18.1 °F 7.9 °F 6.8 °F 61% 30.35 in 10.0 mi SSW 8.1 mph - N/A   Clear
11:15 PM 18.5 °F 8.4 °F 6.8 °F 60% 30.36 in 10.0 mi SSW 8.1 mph - N/A   Clear
11:35 PM 18.5 °F 7.5 °F 6.8 °F 60% 30.36 in 10.0 mi SSW 9.2 mph - N/A   Clear
11:55 PM 18.5 °F 7.5 °F 7.2 °F 61% 30.35 in 10.0 mi SSW 9.2 mph 16.1 mph N/A   Clear